When you browse on this site, cookies collect data to enhance your experience and personalize the content and advertising you see.
Visit our Privacy Policy to learn more. By continuing to use the site, you agree to this use of cookies and data.
  • In United Kingdom
  • List of Countries
  • For 7 days
  • Water Temperature
  • Satellite Maps
  • Weather Map
  • Weather Widgets
  • user-avatar
    Login

    Hourly Weather Santa Maria Coyotepec

    Today, 20 June, Thursday

    Time Temperature Precipitation Wind Pressure Humidity
    00:00 +20°C° 0.8 mm 1 mps 629 mmHg 89%
    01:00 +20°C° 0 mm 1 mps 628 mmHg 88%
    02:00 +20°C° 0 mm 1 mps 628 mmHg 87%
    03:00 +19°C° 0 mm 1 mps 627 mmHg 86%
    04:00 +19°C° 0 mm 1 mps 627 mmHg 86%
    05:00 +19°C° 0 mm 1 mps 627 mmHg 86%
    06:00 +19°C° 0 mm 1 mps 627 mmHg 86%
    07:00 +21°C° 0 mm 1 mps 628 mmHg 78%
    08:00 +23°C° 0 mm 1 mps 629 mmHg 70%
    09:00 +23°C° 0 mm 0 mps 630 mmHg 63%
    10:00 +27°C° 0 mm 1 mps 630 mmHg 56%
    11:00 +28°C° 0 mm 1 mps 631 mmHg 49%
    12:00 +30°C° 0 mm 1 mps 631 mmHg 43%
    13:00 +30°C° 0 mm 1 mps 631 mmHg 42%
    14:00 +31°C° 0 mm 2 mps 630 mmHg 41%
    15:00 +31°C° 0 mm 2 mps 630 mmHg 41%
    16:00 +29°C° 0.4 mm 2 mps 629 mmHg 50%
    17:00 +28°C° 0.4 mm 2 mps 629 mmHg 60%
    18:00 +26°C° 0.4 mm 2 mps 628 mmHg 69%
    19:00 +24°C° 0.8 mm 2 mps 628 mmHg 75%
    20:00 +23°C° 0.8 mm 1 mps 628 mmHg 81%
    21:00 +21°C° 0.8 mm 1 mps 628 mmHg 88%
    22:00 +21°C° 0.2 mm 1 mps 628 mmHg 88%
    23:00 +21°C° 0.2 mm 1 mps 629 mmHg 89%

    Tomorrow, 21 June, Friday

    Time Temperature Precipitation Wind Pressure Humidity
    00:00 +20°C° 0.2 mm 1 mps 629 mmHg 89%
    01:00 +20°C° 0.2 mm 1 mps 628 mmHg 89%
    02:00 +20°C° 0.2 mm 1 mps 628 mmHg 88%
    03:00 +19°C° 0.2 mm 1 mps 627 mmHg 88%
    04:00 +19°C° 0 mm 1 mps 627 mmHg 87%
    05:00 +19°C° 0 mm 1 mps 627 mmHg 87%
    06:00 +19°C° 0 mm 1 mps 627 mmHg 87%
    07:00 +21°C° 0 mm 1 mps 628 mmHg 80%
    08:00 +21°C° 0 mm 0 mps 629 mmHg 72%
    09:00 +23°C° 0 mm 0 mps 631 mmHg 65%
    10:00 +26°C° 0.1 mm 1 mps 631 mmHg 60%
    11:00 +28°C° 0.1 mm 1 mps 631 mmHg 54%
    12:00 +29°C° 0.1 mm 1 mps 631 mmHg 49%
    13:00 +29°C° 0.4 mm 2 mps 631 mmHg 50%
    14:00 +29°C° 0.4 mm 2 mps 630 mmHg 51%
    15:00 +29°C° 0.4 mm 2 mps 630 mmHg 53%
    16:00 +28°C° 1.7 mm 2 mps 629 mmHg 60%
    17:00 +27°C° 1.7 mm 2 mps 629 mmHg 66%
    18:00 +25°C° 1.7 mm 1 mps 629 mmHg 73%
    19:00 +24°C° 1.3 mm 1 mps 629 mmHg 77%
    20:00 +23°C° 1.3 mm 1 mps 629 mmHg 82%
    21:00 +21°C° 1.3 mm 1 mps 629 mmHg 86%
    22:00 +19°C° 0.6 mm 0 mps 629 mmHg 86%
    23:00 +19°C° 0.6 mm 0 mps 629 mmHg 86%

    Day after tomorrow, 22 June, Saturday

    Time Temperature Precipitation Wind Pressure Humidity
    00:00 +18°C° 0.6 mm 0 mps 629 mmHg 87%
    01:00 +18°C° 0.3 mm 0 mps 629 mmHg 86%
    02:00 +18°C° 0.3 mm 0 mps 629 mmHg 85%
    03:00 +20°C° 0.3 mm 1 mps 628 mmHg 85%
    04:00 +20°C° 0.1 mm 1 mps 628 mmHg 85%
    05:00 +20°C° 0.1 mm 1 mps 628 mmHg 85%
    06:00 +18°C° 0.1 mm 0 mps 628 mmHg 85%
    07:00 +20°C° 0 mm 0 mps 629 mmHg 79%
    08:00 +21°C° 0 mm 0 mps 630 mmHg 72%
    09:00 +23°C° 0 mm 0 mps 631 mmHg 66%
    10:00 +24°C° 0.2 mm 0 mps 631 mmHg 61%
    11:00 +28°C° 0.2 mm 1 mps 631 mmHg 56%
    12:00 +29°C° 0.2 mm 1 mps 631 mmHg 51%
    13:00 +29°C° 0.6 mm 1 mps 631 mmHg 53%
    14:00 +28°C° 0.6 mm 2 mps 630 mmHg 55%
    15:00 +28°C° 0.6 mm 2 mps 630 mmHg 56%
    16:00 +27°C° 1.3 mm 2 mps 630 mmHg 62%
    17:00 +26°C° 1.3 mm 2 mps 629 mmHg 68%
    18:00 +25°C° 1.3 mm 1 mps 629 mmHg 74%
    19:00 +24°C° 1.3 mm 1 mps 629 mmHg 79%
    20:00 +23°C° 1.3 mm 1 mps 629 mmHg 83%
    21:00 +22°C° 1.3 mm 1 mps 630 mmHg 87%
    22:00 +22°C° 0.9 mm 1 mps 630 mmHg 87%
    23:00 +22°C° 0.9 mm 1 mps 630 mmHg 87%

    23 June, Sunday

    Time Temperature Precipitation Wind Pressure Humidity
    00:00 +20°C° 0.9 mm 0 mps 630 mmHg 87%
    01:00 +19°C° 0.3 mm 0 mps 629 mmHg 88%
    02:00 +19°C° 0.3 mm 0 mps 629 mmHg 89%
    03:00 +18°C° 0.3 mm 0 mps 628 mmHg 90%
    04:00 +18°C° 0 mm 0 mps 628 mmHg 91%
    05:00 +18°C° 0 mm 0 mps 628 mmHg 91%
    06:00 +18°C° 0 mm 0 mps 628 mmHg 91%
    07:00 +19°C° 0.1 mm 0 mps 629 mmHg 85%
    08:00 +21°C° 0.1 mm 0 mps 630 mmHg 79%
    09:00 +22°C° 0.1 mm 0 mps 631 mmHg 73%
    10:00 +25°C° 1.1 mm 1 mps 631 mmHg 71%
    11:00 +26°C° 1.1 mm 1 mps 631 mmHg 69%
    12:00 +26°C° 1.1 mm 2 mps 631 mmHg 66%
    13:00 +26°C° 1.5 mm 2 mps 630 mmHg 69%
    14:00 +25°C° 1.5 mm 2 mps 629 mmHg 72%
    15:00 +25°C° 1.5 mm 3 mps 629 mmHg 75%
    16:00 +24°C° 0.8 mm 2 mps 628 mmHg 76%
    17:00 +24°C° 0.8 mm 2 mps 628 mmHg 77%
    18:00 +23°C° 0.8 mm 1 mps 628 mmHg 78%
    19:00 +23°C° 0.1 mm 1 mps 628 mmHg 82%
    20:00 +22°C° 0.1 mm 1 mps 628 mmHg 85%
    21:00 +21°C° 0.1 mm 1 mps 629 mmHg 88%
    22:00 +20°C° 0 mm 1 mps 628 mmHg 89%
    23:00 +20°C° 0 mm 1 mps 628 mmHg 91%

    24 June, Monday

    Time Temperature Precipitation Wind Pressure Humidity
    00:00 +17°C° 0 mm 0 mps 628 mmHg 92%
    01:00 +17°C° 0 mm 0 mps 628 mmHg 92%
    02:00 +17°C° 0 mm 0 mps 627 mmHg 92%
    03:00 +16°C° 0 mm 0 mps 627 mmHg 92%
    04:00 +16°C° 0 mm 0 mps 627 mmHg 92%
    05:00 +16°C° 0 mm 0 mps 627 mmHg 92%
    06:00 +16°C° 0 mm 0 mps 627 mmHg 92%
    07:00 +18°C° 0 mm 0 mps 628 mmHg 85%
    08:00 +20°C° 0 mm 0 mps 629 mmHg 78%
    09:00 +22°C° 0 mm 0 mps 630 mmHg 71%
    10:00 +25°C° 0 mm 1 mps 630 mmHg 65%
    11:00 +26°C° 0 mm 1 mps 630 mmHg 60%
    12:00 +28°C° 0 mm 2 mps 630 mmHg 54%
    13:00 +28°C° 0.5 mm 2 mps 630 mmHg 55%
    14:00 +28°C° 0.5 mm 2 mps 629 mmHg 56%
    15:00 +28°C° 0.5 mm 2 mps 629 mmHg 57%
    16:00 +27°C° 0.9 mm 2 mps 628 mmHg 63%
    17:00 +26°C° 0.9 mm 2 mps 628 mmHg 70%
    18:00 +25°C° 0.9 mm 2 mps 628 mmHg 76%
    19:00 +23°C° 1.3 mm 2 mps 628 mmHg 80%
    20:00 +21°C° 1.3 mm 2 mps 628 mmHg 85%
    21:00 +21°C° 1.3 mm 1 mps 628 mmHg 89%
    22:00 +21°C° 0.4 mm 1 mps 628 mmHg 90%
    23:00 +20°C° 0.4 mm 1 mps 628 mmHg 91%

    25 June, Tuesday

    Time Temperature Precipitation Wind Pressure Humidity
    00:00 +20°C° 0.4 mm 1 mps 628 mmHg 91%
    01:00 +20°C° 0 mm 1 mps 628 mmHg 92%
    02:00 +19°C° 0 mm 1 mps 627 mmHg 92%
    03:00 +19°C° 0 mm 1 mps 627 mmHg 93%
    04:00 +17°C° 0 mm 0 mps 627 mmHg 93%
    05:00 +16°C° 0 mm 0 mps 627 mmHg 93%
    06:00 +16°C° 0 mm 0 mps 627 mmHg 94%
    07:00 +18°C° 0 mm 0 mps 628 mmHg 87%
    08:00 +20°C° 0 mm 0 mps 629 mmHg 79%
    09:00 +22°C° 0 mm 0 mps 630 mmHg 72%
    10:00 +25°C° 0.2 mm 1 mps 630 mmHg 67%
    11:00 +26°C° 0.2 mm 2 mps 630 mmHg 62%
    12:00 +27°C° 0.2 mm 2 mps 630 mmHg 57%
    13:00 +27°C° 0.8 mm 2 mps 630 mmHg 58%
    14:00 +27°C° 0.8 mm 3 mps 630 mmHg 60%
    15:00 +27°C° 0.8 mm 3 mps 629 mmHg 62%
    16:00 +26°C° 0.7 mm 2 mps 629 mmHg 66%
    17:00 +26°C° 0.7 mm 2 mps 629 mmHg 70%
    18:00 +25°C° 0.7 mm 2 mps 628 mmHg 74%
    19:00 +23°C° 1.1 mm 1 mps 628 mmHg 79%
    20:00 +22°C° 1.1 mm 1 mps 628 mmHg 83%
    21:00 +21°C° 1.1 mm 1 mps 629 mmHg 88%
    22:00 +20°C° 0.2 mm 1 mps 629 mmHg 88%
    23:00 +20°C° 0.2 mm 1 mps 629 mmHg 88%
    Show more